Powrót do katalogu

FENGYUN 1C DEB

AktywnyPO
NORAD 30811·DEBRIS·🇨🇳 China

Wystrzelony May 10, 1999 z Taiyuan Satellite Launch Center

Loading…

Następne Przeloty (najbliższe 24 godziny)

TLE

ŚwieżeSource: Space-Track

Epoka: Sep 14, 2026, 11:21 UTC

1 30811U 99025AUV 26257.47343188  .00001003  00000-0  10307-2 0  9995
2 30811  98.7612 274.5367 0278018  45.6115 316.7436 13.62619352966212

Śledź FENGYUN 1C DEB w czasie rzeczywistym z AllMySat

Download on the App Store